Showing default

YURI (BSE), 10792

Orbit data source: Space-Track

YURI (BSE), 10792 is a payload satellite owned by NASDA (JP) in GEO that was launched on Fri, 07 Apr 1978 UTC via a DELTA 2914 launch vehicle from the Air Force Eastern Test Range (AFETR). Payload-class satellites include a variety of spacecraft equipped with specific instruments for various scientific and technological missions. These include communications satellites like Starlink; space stations such as the ISS; scientific satellites like the Hubble; Earth observation satellites from companies like Planet Labs, Umbra, and HawkEye 360; GPS; miniature CubeSats for education and research; and military/defense satellites.

Not visible in the next 10 days
Identifier
10792, 1978-039A
Orbit
GEO
Last TLE update
11 hours ago
Origin
Manufacturer
GEVF/TOSH
Mission
Non-operational Civil Communications
Bus & Motor
BS, STAR 27
Mass
678 kg wet, ~295 kg dry
Launch date (UTC)
1978-04-07 (47 years ago)
Launch vehicle
DELTA 2914
Launch site
Air Force Eastern Test Range (AFETR)
Object type
Payload
Rocket body
Debris
Shape & HBR
Hex Poly + 2 Pan, 3.09 m
Radar Cross Section
2.497 m², Large (>1 m²)

Expand to show TLE details & history

TLE from 11 hours ago
0 YURI (BSE)
1 10792U 78039A   25189.88404799 -.00000320  00000-0  00000+0 0  9995
2 10792   6.3281 287.5856 0016263 301.9975 123.6982  1.00281210115300
Epoch: 2025-07-08T21:13Z
TLE epoch observation values (Epoch: 2025-07-08T21:13:01.746Z)
Latitude
5.77138°
Longitude
107.96278°
Altitude
35,820.681 km
Speed
3.072 km/s
True Right ascension
23h 33m 10s
True Declination
5° 45' 56"
Sunlit
Object was in daylight at epoch
Visualization orbit readout
Latitude
-4.38287°
Longitude
-93.87474°
Altitude
35,770.178 km
Speed
3.076 km/s
Apparent Right ascension
09h 52m 41s
Apparent Declination
-8° 57' 39"
Sunlit
Object is in daylight
Visualization observer readout
Local Sidereal Time
19:54:56
Azimuth
311.703° NW
Elevation
-49.444°
Doppler factor
1
Orbital elements
Apogee altitude
35,853.574 km
Perigee altitude
35,716.434 km
Semi-major axis
42,163.141 km
Eccentricity
0.00163
Inclination
6.3281°
RAAN
287.5856°
Arg. of periapsis
301.9975°
True anomaly
Unknown
Mean anomaly
123.6982°
Eccentric anomaly
Unknown
Mean motion
0.25069 °/min
Orbital period
1,436.01 mins
BSTAR
0
Loading historical data...
10792 neighbors
Loading maneuver chart data...
Loading SW <> Apogee altitude chart data...
Loading historical data...
Loading historical data...
Loading historical data...
Loading historical data...
Loading historical data...
Loading historical data...
Loading historical data...
Other satellites on launch #39 in the year 1978 (1978-04-07 UTC)

YURI (BSE) Visibility

Observer location: undefined°, undefined°

YURI (BSE) is likely not visible in the next few days
Span
Click to sort rows by Start time (UTC) header in descending order
Start Az.
Max El. time (UTC)
Max El. Az.
Max El.
End time (UTC)
End Az.
|